www.pogodaiklimat.ru

Погода и климат >> Архив погоды >> Греция >> Керкира


ПОГОДА в Керкире

  • Прогноз погоды в Керкире
  • Монитор погоды в Керкире

АРХИВ ПОГОДЫ в Керкире

Время (UTC), дата Ветер
(напр.,м/с)
 
Видим.   Явления Облачность Т
(С)
Тd
(С)
f
(%)
Тe
(С)
Тes
(С)
Комфортность P
(гПа)
Po
(гПа)
Тmin
(С)
Tmax
(С)
R
(мм)
R24
(мм)
S
(см)
15 16.09 СЗ 4
{8}
20 км 3/0
[Ci fib]
+30.6 +15.9 41 +33 +35 душно 1015.5 1015.1
18 16.09 З 4
{7}
10 км 3/0
[Ci fib]
+25.2 +12.9 46 +27 +27 жарко 1015.5 1015.1 +30.6
21 16.09 З 2
{3}
10 км ясно +22.6 +12.9 54 +25 +25 комфорт 1016.5 1015.9
00 17.09 штиль 0
{2}
10 км ясно +20.0 +16.7 81 +22 +22 комфорт 1015.8 1015.3
03 17.09 штиль 0
{2}
10 км ясно +18.8 +15.8 83 +20 +20 1015.6 1015.1
06 17.09 штиль 0
{3}
20 км 3/3 300 м
[St]
+20.0 +18.1 89 +23 +24 комфорт 1015.8 1015.3 +18.2 250
09 17.09 В 3
{4}
10 км 3/1 600 м
[Cu hum Ci fib]
+27.0 +19.3 63 +33 +41 очень
душно
1016.0 1015.6
12 17.09 ЮВ 4
{8}
20 км 3/3 600 м
[Cu hum]
+30.2 +19.2 52 +36 +42 очень
душно
1015.4 1015.0
15 17.09 ЮЗ 3
{7}
20 км 1/1 600 м
[Cu hum]
+28.8 +20.0 59 +35 +37 очень
душно
1014.6 1014.2
18 17.09 ЮЗ 2
{6}
10 км ясно +25.0 +19.4 71 +30 +30 душно 1014.6 1014.2 +31.0
21 17.09 З 1
{2}
10 км ясно +23.0 +20.2 84 +30 +30 очень
душно
1014.9 1014.5
00 18.09 З 2
{3}
10 км ясно +20.2 +18.6 91 +24 +24 комфорт 1015.1 1014.6
03 18.09 З 1
{3}
10 км 4/4 300 м
[St]
+19.6 +18.0 90 +23 +23 комфорт 1014.6 1014.0
06 18.09 З 2
{3}
20 км 3/3 300 м
[St]
+20.4 +18.5 89 +25 +26 комфорт 1015.1 1014.6 +19.2 255
09 18.09 ЮВ 3
{7}
20 км 3/3 300 м
[Cu hum]
+26.8 +20.5 68 +33 +39 очень
душно
1015.5 1015.1
12 18.09 З 4
{8}
20 км 4/4 300 м
[Cu hum]
+28.6 +20.8 63 +36 +40 очень
душно
1014.9 1014.5
15 18.09 ЮЗ 4
{8}
20 км 3/3 300 м
[Cu hum]
+29.0 +21.0 62 +36 +37 очень
душно
1014.3 1013.9
18 18.09 З 3
{7}
10 км 3/3 300 м
[Cu hum]
+25.0 +20.8 78 +31 +31 очень
душно
1015.3 1014.9 +30.0
21 18.09 штиль 0
{3}
10 км 3/3 300 м
[Cu hum]
+23.4 +20.3 83 +31 +31 очень
душно
1015.8 1015.3
00 19.09 штиль 0
{3}
10 км 3/3 300 м
[Cu hum]
+21.4 +19.5 89 +26 +26 душно 1015.4 1014.9
03 19.09 штиль 0
{3}
10 км 1/1 300 м
[St]
+20.8 +19.2 91 +25 +25 комфорт 1015.4 1014.9
06 19.09 штиль 0
{3}
10 км 3/3 300 м
[Cu hum]
+21.6 +19.4 87 +27 +28 душно 1015.3 1014.7 +20.4 250
09 19.09 ЮВ 3
{6}
10 км 5/5 300 м
[Cu hum]
+28.6 +20.8 63 +36 +40 очень
душно
1015.6 1015.3
12 19.09 ЮЗ 3
{7}
20 км 5/5 540 м
[Cu Sc]
+29.2 +21.9 65 +38 +42 очень
душно
1014.6 1014.2
15 19.09 З 5
{8}
20 км 5/4 540 м
[Cu Sc Ci ing]
+28.4 +19.6 59 +34 +35 очень
душно
1014.2 1013.8
18 19.09 З 3
{7}
10 км гроза без осадков 9/6 540 м
[Cb cap Ac und]
+25.2 +20.7 76 +31 +31 очень
душно
1015.0 1014.6 +29.6
21 19.09 С 3
{7}
10 км {дождь} 6/5 540 м
[Cu Sc Ac und]
+23.2 +18.8 76 +29 +29 душно 1015.4 1014.9
00 20.09 нст 1
{6}
10 км {дождь} 6/5 540 м
[Cu Sc Ac und]
+20.6 +17.7 83 +25 +25 комфорт 1014.9 1014.3 0.0
03 20.09 З 2
{4}
10 км 6/5 540 м
[Cu Sc Ac und]
+20.0 +16.7 81 +23 +23 комфорт 1014.5 1013.9
06 20.09 З 3
{4}
20 км 3/3 600 м
[Cu med, cong]
+21.4 +17.5 78 +25 +26 комфорт 1014.7 1014.2 +19.4 0.0 255
09 20.09 СВ 2
{6}
20 км 3/3 600 м
[Cu med, cong Ci fib]
+26.6 +18.5 61 +31 +39 душно 1015.6 1015.3
12 20.09 СЗ 5
{8}
20 км 6/3 900 м
[Cu med, cong Cs]
+27.6 +17.2 53 +32 +36 очень
душно
1015.3 1014.9
15 20.09 СЗ 8
{10}
20 км 4/1 900 м
[Cu med, cong Ci sp]
+26.6 +14.3 47 +29 +29 жарко 1015.1 1014.7
18 20.09 З 4
{10}
10 км 3/0
[Ci sp]
+22.4 +14.3 60 +26 +26 жарко 1016.0 1015.5 +27.6
21 20.09 ЮЗ 2
{6}
10 км ясно +21.2 +13.6 62 +24 +24 комфорт 1017.3 1016.7
00 21.09 штиль 0
{2}
10 км 4/3 600 м
[Cu med, cong Ac trans]
+19.2 +14.0 72 +20 +20 1017.8 1017.3
03 21.09 З 2
{3}
10 км 4/3 600 м
[Cu med, cong Ac trans]
+18.4 +14.3 77 +20 +20 1018.2 1017.6
06 21.09 З 1
{3}
20 км 4/4 600 м
[Cu hum Ac cuf]
+18.8 +14.7 77 +21 +22 комфорт 1019.4 1018.9 +17.8 240
09 21.09 В 2
{4}
20 км 5/5 600 м
[Cu Sc]
+26.0 +14.8 50 +29 +34 душно 1020.9 1020.3
12 21.09 ЮВ 3
{5}
20 км 4/4 600 м
[Cu hum]
+27.6 +14.8 46 +30 +36 жарко 1020.6 1020.2
15 21.09 З 6
{9}
20 км 1/1 600 м
[Cu hum]
+26.8 +15.4 50 +30 +31 душно 1020.6 1020.0
18 21.09 З 3
{6}
10 км ясно +24.0 +15.4 59 +27 +27 жарко 1020.7 1020.2 +28.2
21 21.09 штиль 0
{2}
10 км ясно +20.2 +15.1 72 +22 +22 комфорт 1021.3 1020.7
00 22.09 З 2
{3}
10 км ясно +18.0 +15.3 84 +19 +19 1021.0 1020.5
03 22.09 З 2
{3}
10 км 1/1 300 м
[St]
+17.4 +15.4 88 +18 +18 1020.7 1020.2
06 22.09 штиль 0
{3}
20 км 3/3 300 м
[Cu hum Ci fib]
+20.2 +17.3 83 +23 +24 комфорт 1021.0 1020.5 +17.0 250
09 22.09 ЮВ 3
{6}
20 км 5/4 600 м
[Cu hum Ci fib]
+26.4 +18.3 61 +31 +36 душно 1021.0 1020.5
12 22.09 ЮЗ 4
{6}
20 км 5/5 600 м
[Cu hum]
+27.2 +16.7 53 +31 +35 душно 1019.9 1019.5
15 22.09 ЮЗ 4
{8}
20 км 5/5 600 м
[Cu hum]
+27.6 +15.6 48 +31 +31 душно 1019.3 1018.9
18 22.09 З 2
{7}
10 км 5/1 600 м
[Cu hum Cs]
+21.6 +17.1 76 +26 +26 душно 1018.7 1018.2 +27.8
21 22.09 З 2
{3}
10 км 5/3 540 м
[Cu hum Cs]
+19.8 +16.2 80 +23 +23 комфорт 1018.9 1018.3
00 23.09 З 2
{3}
10 км 3/3 300 м
[Cu hum]
+18.4 +16.4 88 +20 +20 1018.5 1017.9
03 23.09 штиль 0
{2}
10 км 5/3 540 м
[Cu hum Ac und]
+19.0 +16.3 84 +20 +20 1017.8 1017.3
06 23.09 штиль 0
{2}
20 км 6/5 600 м
[Cu Sc Ac und]
+20.0 +16.7 81 +22 +23 комфорт 1018.0 1017.5 +18.0 250
09 23.09 ЮВ 5
{8}
20 км 6/5 600 м
[Cu Sc Ac und]
+25.4 +18.9 67 +30 +33 душно 1017.3 1016.9
12 23.09 ЮВ 6
{9}
10 км 9/6 600 м
[Cu Sc Ac As]
+25.0 +19.1 70 +30 +31 душно 1016.0 1015.6

 

Местоположение метеостанции Керкира (Греция): широта 39.62 долгота 19.92 высота над уровнем моря 4 м.

В архиве по умолчанию представлена погода в Керкире за последнюю неделю. Архивные данные за месяц целиком и за предыдущие месяцы, начиная с января 2011 года, Вы можете получить, выбрав интересующий диапазон дат из раскрывающегося списка и нажав кнопку "Ввод!".


*Определитесь, кто Вы:
робот инопланетянин человек

Внимание! Время в таблицах - всемирное. Для получения местного времени необходимо прибавить поправку, которая равна 2 ч.

Смотрите также архив погоды в соседних городах и на ближайших метеорологических станциях:

Погода в Саранде (Албания) (30 км)
Погода в Гирокастре (Албания) (55 км)
Погода в Янине (Греция) (78 км)
Погода в Конице (Греция) (85 км)
Погода во Влёре (Албания) (102 км)
Погода на Сазани (Албания) (112 км)
Погода в Корке (Албания) (131 км)
Погода в Кучове (Албания) (131 км)
Погода в Актионе (Греция) (133 км)
Погода в Отранто (Италия) (134 км)

Пояснения к столбцам:

Ветер - указаны скорость ветра в м/с - средняя за 10 мин, порывы в срок и между сроками (в фигурных скобках) и направление, откуда дует ветер: С - северный, СВ - северо-восточный, В - восточный, ЮВ - юго-восточный, Ю - южный, ЮЗ - юго-западный, З - западный, СЗ - северо-западный.
Видимость - горизонтальная дальность видимости в метрах или километрах. При видимости от 1 до 10 км при отсутствии осадков обычно наблюдается дымка, при ухудшении видимости до 1 км и менее - туман. В сухую погоду видимость может ухудшаться дымом, пылью или мглою.
Явления - указаны атмосферные явления, наблюдавшиеся в срок или в последний час перед сроком; фигурными скобками обозначены явления, наблюдавшиеся между сроками (за 1-3 часа до срока); квадратными скобками обозначены град или гололедные отложения с указанием их диаметра в мм.
Облачность - указаны через наклонную черту общая и нижняя облачность в баллах и высота нижней границы облаков в метрах; квадратными скобками обозначены формы облаков: Ci - перистые, Cs - перисто-слоистые, Cc - перисто-кучевые, Ac - высококучевые, As - высокослоистые, Sc - слоисто-кучевые, Ns - слоисто-дождевые, Cu - кучевые, Cb - кучево-дождевые. Подробнее классификацию облаков см. в Атласе облаков (PDF).
T - Температура воздуха - температура, измеренная на высоте 2 м над землей.
Td - Температура точки росы - температура, при понижении до которой содержащийся в воздухе водяной пар достигнет насыщения.
f - Относительная влажность воздуха - влажноcть воздуха, измеренная на высоте 2 м над землей.
Te - Эффективная температура - температура, которую ощущает одетый по сезону человек в тени. Характеристика душности погоды. При расчете учитывается влияние влажности воздуха и скорости ветра на теплоощущения человека.
Tes - Эффективная температура на солнце - температура, которую ощущает человек, с поправкой на солнечный нагрев. Характеристика знойности погоды. Зависит от высоты солнца над горизонтом, облачности и скорости ветра. Ночью, в пасмурную погоду, а также при ветре 12 м/с и более поправка равна нулю.
P - Атмосферное давление - приведенное к уровню моря атмосферное давление.
Po - Атмосферное давление - измеренное на уровне метеостанции атмосферное давление.
Tmin - Минимальная температура - минимум температуры воздуха на высоте 2 м над землей.
Tmax - Максимальная температура - максимум температуры воздуха на высоте 2 м над землей.
R - Количество осадков - Количество выпавших осадков за период времени, мм. При наведении курсора мыши на число - период времени, за который выпало указанное количество осадков.
R24 - Количество осадков - Количество выпавших осадков за 24 часа, мм.
S - Снежный покров - Высота снежного покрова, см. При наведении курсора мыши на число - состояние снежного покрова и степень покрытия местности в баллах.